Find USA 286

NORAD ID: 43446 Int'l Des: 2018-036 Owner: AFRL Country: US operational
MEOCIRCULAR

リアルタイム位置

3D地球を読み込み中...

USA 286について

説明を読み込み中...

次回通過

Passes for default location (London). Set your location on the main map for personalized predictions.

高度履歴

Loading altitude history...

軌道要素

1 43446U 18036F 26106.87082330 -.00000050 00000-0 00000+0 0 9990
2 43446 6.9657 67.6465 0010792 166.7791 57.0253 1.02119382 26294
Epoch: Apr 16, 2026 • Age: 21 hours

現在のステータス

高度 35234.3 km
速度 3.10 km/s
衛星直下点 -0.98°S, 138.79°E
打ち上げ日 Apr 14, 2018
運用期間 8 years
タイプ military

技術仕様

分類 Payload
質量 100.00 kg
乾燥質量 80.00 kg
総質量 100.00 kg
長さ 0.70 m
直径 0.60 m
スパン 0.60 m
形状 Box
製造者 OATK/HARR
バスタイプ ESPASat
フェーズステータス In Orbit
所有者/国 AFRL/US

Most Searched